Location: Watson Lake
(60.1170°N, 128.8000°W)
Time: 21:50:24
(UTC-07:00)

Daily predictions for brighter satellites

Satellite Brightness Start Highest point End
(mag) Time Altitude Azimuth Time Altitude Azimuth Time Altitude Azimuth
Cosmos 2278 Rocket 4.2 23:23:06 10° W 23:28:18 35° NNW 23:33:31 10° NE
ATLAS 5 CENTAUR R/B 3.8 23:29:30 10° WNW 23:34:10 26° WSW 23:39:11 10° S
Cosmos 44 Rocket 4.4 23:34:29 10° WNW 23:39:05 46° N 23:43:39 10° ENE
H-2A R/B 2.2 23:35:15 10° S 23:39:21 70° WSW 23:43:31 10° NNW
Cosmos 1092 Rocket 4.1 23:33:39 10° S 23:39:43 64° E 23:45:48 10° NNE
NOSS 3-2 (A) 3.7 23:33:49 10° SW 23:40:11 83° SSE 23:47:22 10° ENE
Nadezhda 4 Rocket 4.0 23:36:17 10° S 23:42:30 83° E 23:48:41 10° NNE
ISS -1.9 23:42:22 10° S 23:43:39 12° SSE 23:44:56 10° SE
Cosmos 1553 Rocket 4.3 23:37:31 10° N 23:43:56 64° ENE 23:50:14 10° SSE
Cosmos 2082 3.9 23:40:11 10° NW 23:45:57 73° NE 23:51:41 10° SE
Cosmos 1437 3.7 23:43:19 10° NNW 23:46:24 42° W 23:49:28 10° S
Cosmos 1862 3.6 23:43:15 10° SSW 23:47:14 71° WNW 23:51:13 10° N
ARGOS Delta rocket 4.3 23:47:54 10° NNE 23:52:21 42° E 23:56:36 10° SSE
Cosmos 372 Rocket 3.9 23:48:11 10° SSW 23:53:19 81° ESE 23:58:28 10° NNE
PSLV R/B 3.3 23:51:04 10° S 23:53:50 57° WSW 23:56:35 10° NNW
DELTA 2 DEB (DPAF) 4.2 23:49:25 10° SSE 23:53:54 84° WSW 23:58:25 10° NNW
Okean 3 4.0 23:51:28 10° NNW 23:55:34 53° W 23:59:38 10° S
Cosmos 1825 3.6 23:52:00 10° SW 23:55:35 39° WNW 23:59:11 10° N
